Tracking 25703 objects as of 2-Jul-2022
HD Live streaming from Space Station
objects crossing your sky now

NOAA 16 DEB

Track NOAA 16 DEB now!
10-day predictions


NORAD ID: 41398
Int'l Code: 2000-055KB
Perigee: 819.9 km
Apogee: 852.4 km
Inclination: 98.8 °
Period: 101.5 minutes
Semi major axis: 7207 km
RCS: Unknown
Launch date: September 21, 2000
Source: United States (US)
Launch site: AIR FORCE WESTERN TEST RANGE (AFWTR)

Note: This is SATELLITE DEBRIS
aabbcc
Your satellite tracking list
Your tracking list is empty




NASA's NSSDC Master Catalog

Two Line Element Set (TLE):
1 41398U 00055KB  22182.46677877  .00001214  00000-0  60241-3 0  9996
2 41398  98.8116 273.8650 0022550 111.3269 249.0316 14.18925628327843
Source of the keplerian elements: AFSPC